Location: Makakahi
(40.6833°S, 175.6000°E)
Time: 18:56:00
(UTC+00:00)

FENGYUN 1C DEB - Pass Details

Date: 15 February 2026
Orbit: 839 x 906 km, 98.9° (Epoch: 9 March)

Event Time Altitude Azimuth Distance (km) Brightness Sun altitude
Rises 10:29:47 0° 181° (S) 3,449 ? -29.7°
Reaches altitude 10° 10:32:45 10° 197° (SSW) 2,515 ? -30.0°
Maximum altitude 10:36:41 20° 242° (WSW) 1,899 ? -30.4°
Drops below altitude 10° 10:40:38 10° 287° (WNW) 2,525 ? -30.8°
Sets 10:43:37 0° 303° (WNW) 3,466 ? -31.1°
